User: anonymous   Login
Location: Unspecified
(0.0000°N, 0.0000°E)
Time: 07:36:24
(UTC+02:00)
Language:

SJ-6B - Orbit

View from above orbital plane
View from above orbital plane
View from above satellite
View from above satellite

Ground track
Ground track

The orbit data is extracted from the following two-line orbital elements,

1 28415U 04035C   16244.13803608  .00001083  00000-0  76862-4 0  9993
2 28415  97.7746 265.3836 0053418  26.7718 333.6248 15.05831100654926
Epoch (UTC): 31 August 2016 03:18:46
Eccentricity: 0.0053418
inclination: 97.7746°
perigee height: 512 km
apogee height: 586 km
right ascension of ascending node: 265.3836°
argument of perigee: 26.7718°
revolutions per day: 15.05831100
mean anomaly at epoch: 333.6248°
orbit number at epoch: 65492

The dashed part of the orbit path shows where the satellite is in the earth's shadow,  

DLR